Location: Jarret
(43.0833°N, 0.0167°W)
Time: 18:00:08
(UTC+00:00)

Daily predictions for brighter satellites

Satellite Brightness Start Highest point End
(mag) Time Altitude Azimuth Time Altitude Azimuth Time Altitude Azimuth
Ariane Rocket 3.4 18:50:35 10° SE 18:55:23 45° ENE 19:00:13 10° N
STARLINK-1106 4.0 18:52:30 10° NW 18:56:34 54° NNE 19:00:38 10° ESE
Abrixas rocket 2.5 18:54:09 10° W 18:57:04 56° NNW 19:00:00 10° ENE
Cosmos 1544 Rocket 3.6 18:53:44 10° S 18:58:08 83° E 19:02:36 10° N
Aureole 2 Rocket 3.7 18:57:20 10° N 19:00:15 24° ENE 19:03:07 10° ESE
STARLINK-1112 3.9 18:57:28 10° NW 19:01:35 58° NNE 19:05:40 10° ESE
Cosmos 1943 4.1 18:57:29 10° SSE 19:02:04 26° ESE 19:06:40 10° NE
ATLAS 2AS CENTAUR R/B 4.2 18:55:53 10° NNW 19:02:11 26° NNE 19:08:07 10° E
ISS -3.1 19:00:49 10° NW 19:04:04 43° NNE 19:07:17 10° E
STARLINK-1128 3.8 19:02:27 10° NW 19:06:34 63° NNE 19:10:37 10° ESE
SJ-11-01 4.3 19:03:21 10° SSE 19:08:01 67° ENE 19:12:43 10° N
HJ-1C 3.4 19:05:32 10° SSE 19:08:53 88° W 19:12:16 10° NNW
USA 234 4.0 19:03:36 10° ENE 19:09:10 29° SE 19:14:43 10° S
CSL-04 Rocket 4.3 19:04:28 10° S 19:09:41 58° WSW 19:14:55 10° NNW
STARLINK-1113 3.7 19:07:25 10° NW 19:11:33 67° NNE 19:15:23 12° ESE
STARLINK-1119 3.6 19:12:24 10° NW 19:16:33 73° NE 19:20:11 13° ESE
SJ-6B 3.5 19:14:24 10° SE 19:18:12 39° ENE 19:22:03 10° N
Cosmos 1758 Rocket 4.5 19:15:01 10° NNE 19:18:47 28° ENE 19:22:13 11° SE
SeaSat 1 3.9 19:14:27 10° NNE 19:19:07 42° NW 19:23:44 10° SW
STARLINK-1114 3.6 19:17:22 10° NW 19:21:32 79° NE 19:24:58 15° ESE
SL-16 R/B 3.3 19:17:39 10° SW 19:23:08 49° WNW 19:28:37 10° NNE
SL-14 R/B 4.2 19:20:10 10° NNW 19:24:07 52° W 19:27:59 10° S
STARLINK-1130 (DARKSAT) 3.6 19:22:20 10° NW 19:26:30 85° NE 19:29:44 16° SE
Cosmos 1818 4.2 19:22:10 10° S 19:26:58 33° ESE 19:31:49 10° NE
CZ-2C R/B 2.9 19:22:49 10° SSE 19:27:45 68° ENE 19:32:31 10° N
Cosmos 1758 3.5 19:24:38 10° SSW 19:28:43 77° W 19:32:50 10° N
MOS 1 4.3 19:23:14 10° SSE 19:28:49 70° ENE 19:34:27 10° N
STARLINK-1084 3.6 19:27:18 10° NW 19:31:28 88° SSW 19:34:31 18° SE
H-2A R/B 4.2 19:23:32 10° W 19:33:08 19° SW 19:36:49 10° S
Cosmos 2228 3.9 19:30:25 10° SSE 19:34:04 28° E 19:37:47 10° NNE
CZ-4 R/B 4.4 19:33:08 10° SW 19:35:19 15° W 19:37:31 10° WNW
SL-24 R/B 4.4 19:32:22 10° NNE 19:36:19 37° E 19:39:54 10° SSE
STARLINK-1098 3.6 19:32:18 10° NW 19:36:28 82° SW 19:39:19 19° SE
CZ-2C R/B 3.3 19:32:08 10° NE 19:36:36 29° E 19:41:04 10° SSE
Cosmos 2084 Rocket 3.6 19:32:09 10° NW 19:36:38 81° SW 19:40:26 14° SSE
Meteor 1-21 Rocket 4.1 19:32:56 10° N 19:38:30 71° E 19:44:00 10° SSE
Cosmos 1992 Rocket 4.0 19:33:36 10° NNW 19:38:49 69° ENE 19:43:32 12° SSE
Meteor 2-15 Rocket 4.4 19:34:34 10° S 19:40:38 89° W 19:46:45 10° N
ARGOS 3.1 19:35:21 10° SSE 19:40:45 83° ENE 19:46:10 10° NNW
STARLINK-1123 3.7 19:37:17 10° WNW 19:41:27 75° SW 19:44:06 21° SE
SL-4 R/B 2.3 19:39:55 10° SSW 19:42:57 31° SE 19:43:45 28° ESE
MetOp-A 4.4 19:38:31 14° SE 19:42:58 49° ENE 19:48:07 10° N
Cosmos 1603 3.6 19:39:48 10° SSW 19:45:24 75° ESE 19:51:01 10° NNE
USA 186 2.2 19:42:33 10° S 19:45:56 67° W 19:49:14 10° NNW
Cosmos 1726 2.1 19:42:41 10° S 19:46:22 61° E 19:50:04 10° NNE
STARLINK-1097 3.8 19:42:16 10° WNW 19:46:24 69° SW 19:48:52 23° SE
Cosmos 1340 Rocket 4.5 19:47:46 18° ENE 19:47:46 18° ENE 19:49:47 10° NE
H-2A R/B 2.4 19:44:22 10° S 19:49:37 69° WSW 19:54:46 10° NNW
STARLINK-1099 3.9 19:47:16 10° WNW 19:51:22 63° SW 19:53:40 25° SE
Meteor 1-16 Rocket 4.1 19:47:06 10° S 19:52:22 62° E 19:57:47 10° NNE
Resurs 1-3 3.8 19:51:24 24° SE 19:53:46 49° ENE 19:58:01 10° N
Cosmos 1328 4.4 19:50:39 10° N 19:54:24 37° ENE 19:55:28 31° ESE
STARLINK-1104 4.0 19:52:16 10° WNW 19:56:21 57° SW 19:58:27 26° SSE
Cosmos 2184 Rocket 3.9 19:52:35 10° N 19:58:55 74° E 20:04:57 11° SSE
STARLINK-1144 4.1 19:57:16 10° WNW 20:01:18 52° SW 20:03:14 27° SSE
Meteor 2-10 4.1 19:56:33 10° S 20:01:55 88° ESE 20:07:33 10° N
Cosmos 1703 3.4 20:02:01 10° N 20:05:54 53° E 20:06:52 41° SE
Cosmos 1953 3.1 20:02:22 10° SSW 20:06:14 52° W 20:10:08 10° N
STARLINK-1103 4.3 20:02:16 10° WNW 20:06:15 47° SW 20:08:00 28° SSE
Cosmos 292 Rocket 4.4 20:03:42 10° NNW 20:08:24 55° WSW 20:12:32 13° S
Cosmos 2251 Rocket 4.2 20:03:19 10° SW 20:08:35 57° WNW 20:13:54 10° NNE
ATLAS 5 CENTAUR R/B 4.5 20:03:41 10° S 20:09:23 18° SE 20:09:52 18° SE
DMSP B5D2-2 3.9 20:05:57 10° NNE 20:11:11 71° ESE 20:16:23 10° S
STARLINK-1101 4.4 20:07:17 10° WNW 20:11:13 43° SW 20:12:48 29° S
Resurs 01 Rocket 1.7 20:12:28 40° SE 20:13:42 56° ENE 20:18:02 10° N
Cosmos 2058 Rocket 3.3 20:18:19 46° ESE 20:18:46 48° E 20:23:07 10° NNE
Cosmos 1437 3.2 20:16:17 10° NNW 20:19:16 54° W 20:19:45 46° SW
Cosmos 2154 Rocket 4.0 20:14:25 10° N 20:20:48 70° E 20:24:20 28° SSE
NOSS 3-4 (A) 4.1 20:14:53 10° NNW 20:21:42 53° NE 20:24:57 33° ESE
NOSS 3-4 (C) 4.1 20:15:00 10° NNW 20:21:48 53° NE 20:25:02 33° ESE
Cosmos 2369 Rocket 2.8 20:17:45 10° NNW 20:23:17 54° WSW 20:27:18 18° S
Nadezhda 1 Rocket 4.0 20:19:23 10° S 20:25:47 84° E 20:32:12 10° N
SL-8 R/B 3.6 20:22:01 10° WNW 20:26:48 77° SSW 20:27:50 54° SE
CZ-2C R/B 4.4 20:22:37 10° N 20:27:16 57° WNW 20:31:48 10° SSW
Cosmos 1908 3.2 20:27:25 41° SSW 20:28:40 82° W 20:32:33 10° N
Cosmos 1943 Rocket 3.5 20:23:53 10° NW 20:28:54 36° WSW 20:33:49 11° S
Meteor 1-11 4.1 20:26:27 10° N 20:32:15 77° E 20:34:23 40° SSE
Abrixas rocket 3.8 20:30:26 10° WNW 20:32:54 27° N 20:32:54 27° N
SL-24 R/B - RUBIN 2 4.2 20:31:04 10° SSW 20:36:21 56° ESE 20:42:22 10° NE
Cosmos 1726 Rocket 3.8 20:34:23 19° SSW 20:37:24 67° W 20:41:50 10° N
ISS -2.0 20:37:51 10° WNW 20:40:16 27° WSW 20:40:16 27° WSW
Cosmos 1190 Rocket 3.9 20:40:52 47° S 20:42:20 69° ESE 20:47:37 10° NNE
Cosmos 1943 4.2 20:40:21 10° SW 20:45:48 48° WNW 20:51:18 10° NNE
Spot 2 Rocket 3.5 20:46:23 62° E 20:46:39 63° ENE 20:51:42 10° N
Aureole 1 Rocket 4.3 20:41:06 10° SSW 20:49:07 86° WNW 20:55:33 10° NNE
Cosmos 1140 Rocket 3.3 20:51:22 70° E 20:51:22 70° E 20:56:21 10° NNE
USA 234 3.3 20:46:02 10° NE 20:52:36 81° NW 20:59:07 10° SW
ATLAS 2AS CENTAUR R/B 2.7 20:46:45 10° NW 20:54:22 82° NE 20:56:14 53° SE
MetOp-B 4.0 20:57:15 70° SSE 20:57:55 90° S 21:03:19 10° NNW
Terra 3.5 21:07:37 23° NE 21:07:37 23° NE 21:10:01 10° N
Cosmos 921 Rocket 4.0 21:06:51 10° NNW 21:09:39 41° NNW 21:09:39 41° NNW
Cosmos 407 Rocket 4.1 21:09:47 14° SW 21:14:09 53° WNW 21:19:11 10° NNE
SPOT 1/Viking Rocket 3.8 21:17:02 64° NNE 21:17:02 64° NNE 21:21:32 10° N
CZ-2C R/B 4.0 21:12:15 10° N 21:16:56 36° WNW 21:21:37 10° SW
Cosmos 1340 Rocket 4.5 21:23:17 32° WNW 21:23:17 32° WNW 21:26:47 10° N
ERS-1 Rocket 3.7 21:27:58 48° N 21:27:58 48° N 21:31:38 10° N
COSMOS 2455 2.9 21:25:56 10° NNW 21:31:27 73° N 21:31:27 73° N
Cosmos 2341 Rocket 4.4 21:26:14 10° NNW 21:32:29 60° W 21:33:32 53° SW
Cosmos 1980 Rocket 4.5 21:31:44 10° NNE 21:33:52 12° NE 21:33:52 12° NE
Resurs 01 Rocket 4.2 21:50:02 14° W 21:50:32 14° W 21:52:54 10° WNW
Cosmos 2218 Rocket 4.2 21:47:02 10° NNW 21:52:40 64° WNW 21:52:40 64° WNW
ATLAS 5 CENTAUR R/B 4.4 22:02:16 12° NNE 22:02:16 12° NNE 22:02:42 10° NNE
Terra 4.3 22:46:28 18° NW 22:46:28 18° NW 22:47:54 10° NNW
Cosmos 1697 Rocket 4.4 22:46:02 10° NNW 22:48:42 28° NNW 22:48:42 28° NNW
CZ-4C R/B 3.7 22:57:02 10° NNW 23:02:42 44° NNE 23:02:42 44° NNE
Cosmos 1980 Rocket 4.2 23:13:29 10° NNW 23:15:38 24° NNW 23:15:38 24° NNW
Cosmos 2344 4.4 23:28:39 10° NW 23:38:25 77° NE 23:38:51 77° ENE
Cosmos 2082 Rocket 4.4 23:44:34 20° NNE 23:44:34 20° NNE 23:46:14 10° NNE
